GFSSGP_con_sbcape_057.txt.gz
CAPE
72 44 2 79 850 306 139 267 180 18 0 0 0 12 7 6 5 0 0 0 23 442 1094 1731 2093 1922 1740 1890 2061 2047 1860 2111 2136 2310 2049 2079 1984 1944 1838 2132 2145 1915 1499 1797 1750 1665 1342 1194 1403
51 54 49 296 206 115 147 231 173 2 0 0 51 101 52 3 0 4 0 2 366 930 1102 1595 2090 2186 1858 1998 1988 2075 2321 2260 2165 2023 2105 2176 2056 2031 2137 2042 2076 1624 1443 1578 1742 1536 1418 1274 1287
45 69 304 386 34 34 28 95 75 10 0 114 191 31 17 2 3 0 0 128 944 1048 1090 1465 2195 2197 1798 1922 2013 2020 2076 1885 2034 1868 1975 1956 2116 2030 2154 2019 1924 1966 1727 1687 1687 1673 1604 1345 1255
17 0 106 356 18 50 44 120 105 3 209 105 34 0 0 0 0 0 78 774 1008 1220 1443 1911 1818 1653 1721 1855 1954 1761 1810 1794 1797 2075 1949 1635 1902 2288 2134 2162 1975 1828 1852 1675 1690 1665 1704 1456 1227
15 524 122 78 3 29 82 109 161 194 356 200 0 1 5 2 0 27 307 860 1048 1345 1323 1383 2168 1873 1716 2005 2233 2173 1830 1840 1779 2034 2204 2125 1767 1754 1792 1890 1936 1911 1879 1766 1648 1571 1542 1512 1413
304 0 0 2 27 53 52 325 249 304 13 0 0 0 5 0 1 17 596 851 1183 1534 1278 1203 1855 1925 1685 2001 2005 2208 1793 2092 2060 1968 2201 2261 2133 1954 1931 1938 1953 1937 1890 1849 1727 1768 1489 1518 1482
37 0 0 3 44 0 74 566 422 401 11 0 0 1 0 1 0 73 676 960 1305 1455 1306 1222 1288 1512 1743 1725 2271 1906 1714 1844 1913 1992 2087 2133 2268 2101 2002 1948 1971 1923 1853 1767 1749 1685 1628 1563 1393
132 0 0 25 0 15 47 222 153 408 264 0 0 0 4 0 0 567 769 1061 1220 1386 1231 1062 1152 1215 1512 1673 1866 1647 1730 1848 1889 1831 1825 1788 1814 1928 1977 2215 2233 1778 1744 1737 1762 1754 1567 1645 1651
558 225 67 59 14 0 57 145 167 229 140 225 43 0 0 0 248 509 766 1022 1131 1208 959 800 787 1207 1189 1755 1320 1768 1820 1844 1833 1649 1824 1415 791 1062 1381 1599 1789 1800 1741 1675 1739 1757 1808 1660 1543
319 264 287 150 2 4 150 251 436 258 222 76 4 0 10 0 440 492 536 408 625 961 965 660 703 949 1150 1899 1277 1099 1388 1483 1369 990 429 39 383 531 1172 1500 1840 1752 1738 1751 1841 1518 1474 1063 707
323 380 241 138 0 21 122 112 365 375 211 64 0 9 8 0 352 435 431 402 608 816 1013 664 667 661 1055 1294 845 755 932 1091 960 316 0 6 242 2 298 824 1162 962 1455 951 1178 1077 1119 1221 834
44 108 387 264 77 5 27 50 524 535 454 119 0 9 2 10 224 355 403 477 575 772 887 582 553 537 657 489 677 603 702 758 719 56 0 35 303 29 152 414 441 512 802 720 894 711 761 849 842
0 0 2 43 4 16 10 139 519 583 263 37 0 5 7 28 155 248 417 548 542 720 718 482 394 434 440 290 418 412 487 605 464 25 0 51 1 74 0 0 0 17 603 900 678 518 692 454 397
0 0 0 0 0 5 16 194 493 477 29 10 0 0 7 127 182 149 456 596 584 655 594 344 256 312 297 221 143 233 294 312 357 169 0 11 240 115 38 1 158 118 484 663 644 401 413 127 38
0 0 0 0 0 21 9 72 658 332 0 0 0 0 14 126 172 174 383 574 625 524 388 175 134 161 250 164 3 69 225 195 232 472 0 4 287 119 132 158 292 400 530 749 647 488 165 17 194
0 0 0 0 0 15 6 12 590 236 11 0 0 0 17 116 177 222 315 420 431 359 97 29 137 116 235 132 0 0 125 160 64 645 381 116 562 340 164 416 610 488 690 747 449 231 80 38 120
0 0 0 0 0 22 1 118 617 304 131 7 0 0 24 121 179 219 317 303 254 128 0 0 0 13 192 145 40 148 126 0 0 564 524 446 555 537 252 420 369 552 584 737 701 339 50 14 62
0 0 0 0 0 14 16 58 670 426 305 185 27 7 56 194 215 192 255 310 190 126 0 0 0 0 173 256 54 216 220 61 0 270 300 364 589 450 257 480 424 131 407 312 479 528 242 118 86
0 0 0 0 0 42 17 71 669 473 405 334 224 158 88 169 209 185 108 181 144 98 22 0 0 0 155 152 64 40 134 134 201 27 264 186 476 888 723 511 460 107 501 342 207 274 49 7 0
0 0 0 0 0 23 26 51 474 640 448 443 358 291 269 138 120 148 120 103 64 0 39 0 0 0 126 247 236 1 0 2 54 5 0 264 382 778 718 712 508 424 634 275 482 257 29 7 0
0 0 0 0 0 1 18 70 208 424 598 551 444 373 313 198 131 104 101 131 83 0 0 0 0 0 84 182 13 95 21 16 49 0 0 382 467 791 994 772 540 425 658 440 368 101 0 0 0
0 0 0 0 0 0 43 48 49 102 398 129 453 513 502 307 171 122 80 116 152 23 22 0 0 0 8 3 62 139 52 40 0 0 0 206 638 774 1135 989 774 830 551 505 183 348 125 0 0
0 0 0 0 0 0 0 84 0 0 70 100 64 310 326 372 391 270 113 109 142 122 16 29 0 0 0 36 17 29 0 0 0 0 0 0 636 696 1095 875 717 668 629 279 344 564 238 0 0
0 0 0 0 0 0 0 0 0 0 4 30 37 49 113 227 265 241 238 130 133 159 9 7 0 2 0 78 40 2 9 5 11 1 0 0 43 554 623 969 848 685 608 580 440 487 388 54 0
0 0 0 0 0 0 0 0 0 0 0 2 2 56 39 112 169 134 252 243 200 215 83 16 26 41 33 127 116 9 5 0 0 0 0 0 0 71 374 885 962 758 497 548 465 476 595 368 234
0 0 0 0 0 0 0 0 0 0 0 22 24 47 60 79 106 62 124 319 299 280 163 56 39 114 96 150 177 89 17 0 0 0 0 0 0 23 193 492 949 1056 753 522 437 560 553 141 384
0 0 0 0 0 0 0 0 0 0 0 0 0 20 39 68 68 1 63 158 330 283 158 53 94 169 162 189 216 184 93 37 1 0 0 0 0 17 206 415 826 1137 924 653 595 660 825 460 138
0 0 0 0 0 0 0 0 0 0 0 0 0 2 29 50 73 34 5 87 118 176 142 64 36 189 244 243 245 227 168 97 61 0 0 0 0 0 429 652 812 1199 1195 847 684 775 888 981 597
0 0 0 0 0 0 0 0 0 0 0 0 0 25 26 41 50 22 19 65 79 122 179 190 39 97 209 324 265 255 255 182 137 11 0 4 0 0 130 726 864 1153 1309 1048 747 850 1045 1168 1225
0 0 0 0 0 0 0 0 0 0 0 0 0 20 56 68 71 27 13 68 106 124 212 261 192 81 115 345 375 354 329 432 569 381 8 0 51 130 154 342 815 985 1306 1246 1050 970 1115 1252 1218

GFSSGP_con_sbcape_060.txt.gz
CAPE
88 67 29 86 694 208 140 276 45 0 0 0 0 0 10 11 13 0 0 0 86 394 802 1406 2010 1470 1979 1894 2173 2097 2207 1969 2072 2199 2266 2207 2086 1949 1800 1977 1921 1321 1873 1514 1483 1278 985 1118 1424
53 73 76 378 351 63 53 109 49 0 0 14 60 28 37 1 0 6 0 1 409 845 1114 1240 2014 2078 1898 1878 1709 2153 2054 2088 2203 2149 2105 2040 2060 2146 2033 1953 1592 1650 1725 1729 1500 1438 1410 1587 1656
72 156 404 492 27 23 9 135 170 0 0 128 79 28 10 5 2 0 0 248 755 932 1138 1132 2070 2101 1929 1918 2000 2086 2108 1888 1929 2052 2135 2048 2063 2186 2107 2024 1949 1724 1833 1747 1662 1530 1441 1402 1411
111 38 18 421 24 64 60 168 52 8 179 96 3 0 0 0 0 0 45 774 873 1024 1201 1611 1891 1674 1854 2049 2086 1922 1926 1992 2124 2016 2094 2135 2119 2129 2118 2049 1992 1936 1853 1787 1808 1663 1155 1345 1333
0 442 68 88 38 22 101 169 77 123 255 8 0 1 9 9 1 27 612 783 909 1088 1139 1154 2165 1954 1820 1818 1730 1645 1703 1835 2093 2007 1775 1813 1934 1865 2092 2099 1982 1968 1884 1795 1772 1707 1426 1203 1298
422 0 0 4 3 46 58 584 303 313 5 0 0 1 6 23 21 298 672 774 998 1070 1058 1185 1601 1797 1811 2153 2191 1699 1754 1900 2105 2118 2155 2049 1934 1945 1981 2013 2022 1953 1943 1836 1715 1563 1665 1358 1221
54 0 0 6 29 13 132 601 315 218 0 0 0 3 8 47 55 489 669 1009 1260 1009 932 928 1050 1308 1873 1950 2254 1707 1968 1953 2118 2086 1910 2079 2098 2085 2042 2056 2001 1947 1798 1765 1588 1414 1571 1538 1457
145 0 0 0 10 20 53 331 294 246 81 0 0 0 13 4 108 518 802 1015 1149 1042 866 830 957 931 1184 1567 1927 1596 1748 1894 1916 1924 1940 1975 2090 2159 2065 2136 2096 1809 1878 1771 1596 1339 1575 1648 1426
199 146 32 34 23 29 87 161 549 256 0 21 0 0 0 7 430 494 612 939 1008 979 717 783 825 986 945 1452 1232 1453 1754 1866 1829 1703 1836 1636 943 1139 1280 1683 1776 1781 1772 1740 1760 1780 1580 1720 1620
341 159 93 90 6 0 220 176 372 275 47 1 0 0 0 176 311 124 179 300 859 807 732 591 667 861 951 1858 911 1014 1339 1351 1282 1171 421 274 443 608 1359 1609 1646 1735 1668 1713 1688 1569 1662 1124 956
269 235 293 175 5 13 232 330 420 190 103 0 0 0 0 261 127 61 94 131 275 406 872 508 589 617 991 1395 737 761 922 1138 1027 433 0 27 413 70 437 846 995 1028 1607 1012 1289 1158 1265 1174 763
111 142 300 321 207 34 14 81 410 274 333 10 0 0 0 166 88 76 106 139 206 402 714 528 486 453 698 635 637 561 691 791 745 297 0 14 328 42 265 507 530 560 957 747 840 627 791 1085 1009
14 12 32 163 86 2 4 106 491 415 58 0 0 0 0 156 100 169 241 270 410 447 776 575 413 308 412 337 450 353 442 626 559 184 0 65 129 101 0 20 19 7 280 607 551 688 1050 675 844
0 0 0 0 0 0 0 40 415 218 0 0 0 0 0 153 196 280 343 338 527 590 659 485 418 221 180 156 217 194 212 275 319 284 0 55 133 112 26 0 144 132 322 722 666 705 556 290 76
0 0 0 0 0 0 44 363 536 69 2 0 0 0 0 66 207 248 411 335 400 507 484 346 265 112 121 93 42 38 100 160 209 389 22 0 217 200 118 14 256 474 818 669 340 476 278 177 281
0 0 0 0 0 0 21 3 383 5 2 0 0 0 8 81 114 154 370 391 340 354 352 186 276 93 61 53 0 0 0 97 90 257 311 4 224 400 197 168 582 591 946 787 535 261 114 145 182
0 0 0 0 0 0 0 2 321 4 0 0 0 0 6 42 85 80 252 402 408 299 217 82 35 0 32 0 0 0 0 30 20 114 386 282 306 674 314 439 249 422 512 995 872 295 20 40 86
0 0 0 0 0 0 15 17 327 33 0 0 0 0 0 25 49 55 143 326 375 288 52 6 0 0 0 0 0 0 30 0 0 62 357 388 525 765 336 445 417 434 525 661 796 502 280 159 99
0 0 0 0 0 1 4 28 433 181 20 0 1 3 1 3 28 63 99 202 222 153 0 0 0 0 0 18 0 13 149 39 18 0 260 291 512 790 341 552 310 163 449 508 420 510 38 4 7
0 0 0 0 0 3 0 12 370 279 172 21 9 1 18 12 22 49 74 142 144 106 0 0 0 0 0 53 77 19 0 0 52 0 101 211 446 879 778 715 547 601 273 388 546 343 148 9 0
0 0 0 0 0 22 2 0 234 465 318 194 100 25 8 12 55 76 57 82 110 64 66 0 0 0 0 1 0 0 0 0 4 0 0 141 305 631 867 803 537 468 683 424 547 225 1 0 0
0 0 0 0 0 0 1 0 0 301 408 282 229 138 99 49 56 86 62 34 55 22 48 0 0 0 0 0 1 94 73 51 3 0 0 105 330 508 911 945 706 626 693 508 466 286 80 0 0
0 0 0 0 0 0 0 2 0 69 288 389 340 254 194 172 126 71 74 69 45 14 0 0 0 0 0 0 22 52 67 0 0 0 0 0 355 480 855 1050 941 898 782 331 481 648 341 0 0
0 0 0 0 0 0 0 0 0 0 49 212 349 324 333 261 192 119 63 9 2 0 0 0 0 0 0 0 0 0 19 0 0 0 0 0 7 447 587 979 921 827 728 606 510 665 532 87 0
0 0 0 0 0 0 0 0 0 0 5 57 108 219 185 403 393 197 90 66 35 39 2 13 0 0 0 0 0 0 0 0 0 0 0 0 0 12 404 749 919 886 799 730 681 563 749 494 192
0 0 0 0 0 0 0 0 0 0 0 1 33 68 69 138 289 320 261 130 58 52 42 2 30 28 0 0 0 0 0 0 0 0 0 0 0 0 110 447 899 1009 932 707 672 646 674 649 688
0 0 0 0 0 0 0 0 0 0 0 0 5 9 4 33 98 147 199 221 138 54 54 2 16 42 57 31 0 12 0 0 0 0 0 0 0 0 0 231 704 998 1036 860 710 779 859 783 567
0 0 0 0 0 0 0 0 0 0 0 0 0 4 5 27 41 65 77 53 192 130 80 38 0 3 76 85 53 72 63 4 0 0 0 0 0 0 55 208 386 728 1020 950 783 834 946 990 829
0 0 0 0 0 0 0 0 0 0 0 0 0 1 20 36 25 34 33 30 83 177 125 74 26 0 10 113 119 145 167 122 53 0 0 0 0 0 0 282 492 718 1063 1115 920 1112 1149 1154 1286
0 0 0 0 0 0 0 0 0 0 0 0 0 0 40 73 63 39 47 8 23 181 177 154 34 33 70 175 189 210 227 190 125 47 0 0 0 0 0 131 521 742 1094 1264 1197 1167 1308 1349 1442

GFSSGP_con_sbcape_063.txt.gz
CAPE
70 85 65 87 984 218 436 407 224 10 16 5 0 3 4 0 16 112 9 101 245 507 962 1134 2175 2235 1858 1785 2084 2166 2263 2200 2198 2199 2284 2294 2072 2102 1996 1835 1257 1773 1619 1505 1046 954 1191 1641 1774
69 48 63 412 418 191 341 290 136 20 5 4 23 38 38 15 0 5 60 217 113 373 921 936 2139 2499 1817 2101 2074 2092 1994 2061 2211 2227 2149 2125 2121 1903 1851 1911 1668 1833 1673 1360 1537 1456 1550 1594 1872
56 175 426 409 277 203 281 243 75 3 1 18 135 17 23 9 1 2 20 274 189 618 1020 1196 2275 2507 1940 1739 2287 2142 2117 2101 2131 2056 2109 2049 1997 1909 1947 1587 1623 1791 1697 1516 1426 1528 1563 1593 1721
221 210 62 477 182 161 208 254 26 36 193 183 82 22 0 1 2 1 167 363 373 710 868 1693 1846 1999 1833 2117 2008 1946 1693 2050 2056 2153 2037 1939 1734 1967 2092 2080 1762 1745 1739 1689 1590 1512 1567 1409 1382
91 279 263 273 174 87 240 150 90 97 199 108 9 1 8 8 1 42 375 459 683 570 850 1529 2257 2259 2118 2088 1853 1957 1961 2073 1939 1817 1938 2053 1986 2028 2128 1893 1702 1541 1505 1758 1618 1345 1371 1521 1714
479 26 6 57 54 85 232 350 231 396 151 5 1 1 9 22 19 247 389 480 785 636 500 1310 1824 1979 1882 1714 1632 1707 1967 2030 2040 2007 1808 1863 1941 2115 2182 2020 1938 1837 1746 1663 1624 1557 1328 1345 1524
230 0 0 13 65 41 201 637 319 382 141 56 0 1 19 29 73 383 465 626 917 609 560 1072 1282 1678 2107 2206 1711 1811 2006 2080 2135 1846 2139 2053 2157 2162 2137 2128 1902 1721 1610 1341 1408 1510 1501 1516 1571
592 4 137 47 54 105 372 429 542 389 101 1 0 0 15 15 240 403 598 822 1029 745 751 1056 1368 1454 1911 2102 1661 1869 1887 2021 2087 2093 2140 2255 2203 2127 2156 1992 1744 1693 1631 1406 1289 1437 1526 1631 1881
126 360 234 165 37 134 251 363 717 99 0 13 0 0 0 48 316 416 706 856 1036 747 542 628 1167 1400 1750 2043 1438 1605 1745 1760 1761 1774 2008 1749 2099 1970 1716 1753 1543 1776 1563 1662 1601 1565 1608 1661 1744
603 311 151 153 35 25 169 339 741 153 25 18 0 0 5 119 280 262 387 602 762 542 549 544 831 1055 1442 1118 1423 1554 1515 1439 1638 1912 1675 1591 1672 1699 1392 1548 1367 1609 1615 1535 1693 1685 1621 1322 1265
258 205 236 186 22 166 453 324 593 306 289 100 37 15 30 161 144 84 203 499 396 202 262 437 1079 1290 1319 1106 1371 1393 1621 1579 1866 1948 1068 1485 1689 1726 1516 1444 2242 1824 1438 1314 1447 1555 1119 1153 1292
142 163 459 436 298 130 177 694 637 490 528 293 53 21 30 97 65 59 167 421 385 187 253 606 1233 1366 1745 1490 1186 1326 1382 1502 1510 1318 646 1328 1380 1251 1373 1307 1573 1828 2099 1802 2073 1922 1935 1694 1504
85 68 73 172 160 40 32 468 729 623 430 116 54 17 43 30 30 43 89 280 357 220 305 758 1259 1241 1727 2041 1313 1125 1270 1187 1190 1143 610 495 1273 1165 1174 1492 1221 1338 1709 1964 2081 1870 1908 1855 1813
0 0 5 0 0 0 0 32 538 638 147 102 32 38 66 57 18 50 104 203 329 245 257 612 1102 1062 1305 1700 1627 1084 1093 1159 1206 1234 110 818 910 1106 678 935 957 1144 1803 1936 1947 1864 1095 1184 1285
0 0 0 0 0 0 1 125 417 424 169 129 68 41 98 105 59 86 121 192 285 455 422 683 926 802 923 1424 1259 908 737 705 1047 1206 1010 497 1115 1411 1159 890 1402 1494 1884 2199 2087 1819 800 863 511
0 0 0 0 0 0 33 93 531 311 222 173 89 34 106 144 88 157 237 234 358 455 720 745 486 417 607 672 843 485 372 473 905 1221 1365 912 508 1543 1498 1448 1609 1646 2559 2116 1605 1948 1293 1080 659
0 0 0 0 0 0 36 48 501 306 292 245 136 59 60 184 224 262 313 355 400 550 745 651 580 265 478 637 539 541 474 597 923 1073 1232 1482 1318 1405 1694 1569 1895 2044 2736 2925 1891 1562 1049 1069 359
0 0 0 0 0 1 71 58 465 323 232 226 166 110 77 76 252 290 326 443 433 445 661 641 540 510 600 556 783 553 496 523 757 1014 1215 1481 1540 1544 1880 1541 1725 2077 2427 2166 2019 1887 988 976 478
0 0 0 0 0 0 11 56 371 302 289 205 174 153 109 88 169 215 319 521 612 524 599 600 603 667 490 478 498 640 756 1000 1080 938 1200 1549 1635 1776 2163 1574 1817 1666 1961 2241 1707 1227 985 885 443
0 0 0 0 0 0 0 11 85 366 319 344 187 148 92 108 182 239 284 428 584 735 677 596 641 710 653 429 685 815 1049 1078 1231 1029 1395 1577 1702 2040 1987 1844 1867 1663 2351 1872 1917 1611 808 147 175
0 0 0 0 0 0 1 0 88 474 393 235 211 119 27 127 168 249 296 385 499 668 798 639 811 838 858 783 759 914 1014 993 1078 1050 1155 1601 1799 1899 2090 2176 1941 1900 2172 2570 2096 1722 1220 31 85
0 0 0 0 0 0 0 0 27 253 541 485 272 119 94 60 108 199 245 305 392 587 687 816 785 889 645 901 1005 1493 995 893 968 1220 1137 1533 1706 1643 1815 2043 2054 1909 1871 2358 2292 1731 1169 694 73
0 0 0 0 0 0 0 0 0 46 390 637 623 460 201 118 126 170 245 302 368 507 561 609 738 1077 1080 1057 1117 1018 1338 1063 1034 965 1353 1436 1661 1679 1587 1922 2065 2162 2044 2301 1992 1947 1878 1064 63
0 0 0 0 0 0 0 0 0 0 121 508 665 706 582 347 171 236 302 324 311 385 456 506 786 1076 1135 955 1005 1538 1673 1190 840 960 928 965 1154 1494 1767 1834 2173 2404 2241 2327 2073 2042 2119 1851 1261
0 0 0 0 0 0 0 0 0 0 11 95 436 721 739 646 482 307 355 407 420 455 494 621 1184 1115 1071 980 1110 1312 1647 1683 1317 1224 866 1114 745 1006 1557 2030 2174 2181 2516 2406 2223 2268 2248 2157 1565
0 0 0 0 0 0 0 0 0 0 0 6 145 408 699 768 737 628 533 640 678 759 830 800 1041 1184 1081 1026 1261 1445 1601 812 860 1318 800 662 487 591 1322 1785 1911 2218 2399 2393 2413 2133 2093 2263 2212
0 0 0 0 0 0 0 0 0 0 0 0 0 124 461 766 839 797 656 639 727 868 981 804 1038 1113 1075 970 1286 1387 1411 1351 1084 1537 1386 687 1100 457 896 1280 1579 1805 2199 2406 2429 2268 2359 2307 2439
0 0 0 0 0 0 0 0 0 0 0 0 0 0 75 415 627 852 890 884 865 721 946 952 1004 1126 1106 985 1055 952 1271 1324 1340 1290 1353 1342 1039 806 526 1148 1270 1520 1836 2192 2410 2053 2367 2501 2261
0 0 0 0 0 0 0 0 0 0 0 0 0 0 22 96 239 510 884 1151 935 712 842 915 911 1109 1103 992 996 1178 1211 1083 1083 910 1054 1317 1153 1092 1124 1250 1310 1398 1506 1745 2138 2162 2018 2577 2663
0 0 0 2 0 0 0 0 0 0 0 0 0 0 0 84 164 252 401 746 962 1205 952 867 800 805 973 1033 1137 1178 1359 1425 974 1091 944 1024 1288 1134 1177 1316 1455 1524 1526 1728 1984 1901 1628 2155 2531

GFSSGP_con_sbcape_069.txt.gz
CAPE
70 72 235 531 763 820 656 583 388 543 404 279 277 165 495 364 614 1009 638 558 690 706 936 1244 1846 1824 1826 1884 1868 1804 1866 1932 2107 2104 1985 1864 2133 2153 1867 1442 1935 1784 1350 1218 1660 1745 1770 1798 1924
137 284 611 467 1016 470 508 201 208 404 388 328 286 375 397 516 488 485 574 728 650 753 809 745 2084 2461 2153 2317 2347 2244 2096 2114 2128 2246 2311 2187 2050 2005 1297 1843 1961 1633 1928 1637 1476 1672 1964 1841 2137
419 438 474 1060 637 298 492 164 449 271 205 436 340 173 705 454 483 672 543 743 736 478 313 1932 2084 2488 2183 2114 2100 2315 2212 2158 2083 2155 2041 2084 1970 1936 2008 1984 1964 1606 1727 1796 1781 1868 1918 1795 1620
355 796 951 1104 658 255 524 284 491 319 323 442 173 298 309 595 405 447 596 632 548 349 712 2027 2304 1993 2155 2283 2227 2144 1938 1883 1981 1944 2065 1977 2112 1466 1704 1805 2006 1753 1782 1872 1827 1604 1627 1693 1849
577 813 949 1156 330 646 534 332 488 447 524 447 254 341 216 332 515 500 552 562 405 194 864 1573 2425 2094 2161 2160 2015 2115 2070 1993 1995 1950 1845 1976 1949 1865 1662 1661 1762 1793 1830 1663 1671 1644 1385 1562 1619
513 690 1182 618 346 498 557 498 621 546 610 620 785 468 309 236 521 539 481 390 76 138 677 1029 2078 2005 2005 2016 1948 1975 1931 2070 2033 2026 1980 2178 1902 1923 1827 1920 1886 1827 1767 1676 1637 1324 1549 1653 1682
445 883 477 501 450 420 564 716 680 626 668 640 659 970 473 275 519 406 388 226 62 150 556 966 1519 1925 1826 2059 1940 2127 2241 2003 1904 2061 2032 1641 1518 1977 1878 1757 1687 1611 1504 1431 1525 1463 1384 1588 1850
262 781 230 338 328 518 951 753 732 672 849 665 626 756 573 462 482 300 272 103 52 411 400 892 1332 939 968 1556 1755 2046 2024 1877 1921 2092 2079 1939 2044 1768 1497 1779 1476 1481 1417 1351 1394 1514 1577 1681 1718
12 803 694 115 377 456 745 992 1215 1047 685 522 378 937 638 440 455 217 151 93 67 328 403 532 788 1290 958 1065 1911 1901 2010 2177 2094 2092 2049 2243 1433 1775 1495 1473 1267 1463 1451 1317 1303 1544 1799 2184 1828
61 876 287 299 305 669 876 889 1296 918 764 468 582 656 461 367 370 240 172 115 46 256 337 291 713 1569 766 582 1666 1715 1341 1471 1782 1541 2164 1618 2441 1930 981 1122 1175 1441 1554 1492 1441 1456 1588 1619 965
0 166 386 498 454 584 783 845 795 718 529 574 668 705 376 263 325 393 233 149 45 157 218 174 979 911 980 1133 1206 945 1366 1211 1630 1681 1884 1707 1015 1108 1380 1202 1428 1356 1624 1110 1260 1335 1225 489 993
16 36 127 358 510 498 628 889 849 571 30 519 664 612 374 376 460 453 242 227 60 114 151 266 525 1024 857 617 838 773 930 945 986 1389 1457 1519 2017 2052 1758 1246 2052 1748 1835 1497 1071 1522 1547 1256 1455
0 32 0 177 582 520 514 687 343 284 565 626 649 574 489 512 487 367 272 226 95 86 150 442 598 763 1170 1065 899 1021 721 907 1286 1291 1515 1489 1258 2266 1887 2425 1623 1776 1700 1183 1555 1328 1254 864 573
0 0 0 15 643 270 342 564 714 711 854 920 696 648 606 528 496 510 381 337 131 60 159 452 597 823 1181 1321 1109 1150 911 1426 1526 1666 1469 1620 2040 2185 2090 1952 1951 2058 273 952 1796 1662 1815 2034 856
0 0 0 0 358 402 294 333 490 962 948 1007 812 672 664 530 466 458 382 427 181 35 131 429 545 705 1248 1339 1122 1003 924 1141 1721 1804 1606 1644 2065 1766 2552 2511 1950 1356 1778 1667 1413 1223 1103 1210 635
0 0 0 0 16 109 182 398 346 1248 994 1026 934 657 632 542 450 444 414 428 156 4 118 380 266 518 1099 1251 1211 873 652 798 1457 1118 1349 1686 1974 1850 2159 1806 1062 1109 2309 1002 1311 1554 239 1012 389
0 0 0 0 0 0 19 303 17 1068 1028 1079 1041 704 636 627 485 440 365 437 164 0 58 302 293 354 849 1334 1142 873 1234 1205 1597 2076 1959 1880 1914 1787 2173 1984 1608 1915 1617 1953 1151 795 578 777 666
0 0 0 0 0 0 1 203 20 840 850 1047 1066 819 658 614 570 446 358 414 210 24 28 227 234 1410 1681 1260 1391 867 1011 1003 1231 1593 2197 2154 2494 1848 2101 1977 1882 1759 680 1407 779 1512 1086 1454 229
0 0 0 0 0 0 0 196 620 677 761 1019 1049 1000 586 793 579 490 354 328 188 92 69 264 836 2183 1036 673 766 876 620 972 2000 844 1582 1985 1732 1548 2076 1095 1781 2654 2035 1715 1084 1019 628 635 246
0 0 0 0 0 0 1 30 448 702 685 912 1038 1077 874 795 739 558 437 341 247 158 226 985 1397 2234 1277 680 1023 1037 1237 731 840 820 1806 1641 1734 1878 1736 1410 1891 1647 1869 1429 1217 1830 891 798 358
0 0 0 0 0 0 0 80 197 507 724 770 1004 1139 1028 630 896 623 529 453 345 237 359 1316 1885 2162 1695 1295 1023 1084 1399 1863 981 1947 1393 1863 1752 1908 2245 1930 2556 1940 1889 1465 1518 1340 2183 785 130
0 0 0 0 0 0 0 0 156 132 764 615 770 983 1044 928 685 808 688 619 499 378 284 1365 1766 2202 1796 2023 770 1767 1031 853 831 1175 917 1480 1735 1696 1986 1934 1998 2097 1452 1625 1703 1259 2275 1845 380
0 0 0 0 0 0 0 0 34 275 306 781 702 796 941 1025 650 756 846 810 659 479 336 563 2025 2346 2110 1874 1627 1292 1706 688 730 657 2812 2831 3123 1726 1504 1976 2053 1670 1740 1866 2044 1945 2381 843 1061
0 0 0 0 0 0 0 0 0 61 389 368 619 650 871 1014 919 679 795 913 790 679 548 423 1987 2546 2575 2331 1918 2622 2123 1983 639 1020 1363 1058 1343 1655 1920 1624 2150 3027 1959 2351 2056 2017 1934 2567 1680
0 0 0 0 0 0 0 0 0 0 30 211 542 649 726 875 1067 909 759 810 976 1011 1082 1168 1923 2810 2607 2640 1920 2290 3000 2841 2929 2544 1098 1335 651 686 2999 3053 2863 2446 2509 2496 2176 2452 1979 1977 1769
0 0 0 0 0 0 0 0 0 0 5 22 229 582 670 705 964 1043 904 848 1047 1288 1719 1878 2393 2811 2961 2552 2558 2161 2625 1058 1177 2177 956 614 425 675 3709 2542 2046 2102 2238 2126 3163 2350 2146 3101 1904
2 7 0 0 8 0 0 0 0 0 0 0 23 366 566 703 682 983 975 934 909 1378 1945 2115 2608 3137 3064 2530 2745 3107 2674 1656 1048 2307 3023 1464 1918 894 1311 1564 2436 2282 2273 2501 3615 2052 2697 2293 2656
1 19 3 1 6 5 4 5 0 0 0 0 0 116 311 683 742 771 879 934 972 979 1390 2054 2458 3249 3255 2799 2760 2780 2968 2735 1997 2670 3327 2393 2919 2514 1465 1822 1486 2265 2632 2727 3638 2794 3096 3190 2386
0 0 15 34 3 4 1 11 4 0 0 0 0 6 125 382 617 774 808 884 1040 1032 1044 1283 2063 2857 2870 2789 2928 2750 2650 2616 2223 2584 3020 3201 3394 3558 3064 2532 2191 2050 2268 2780 3858 3815 2692 3674 3743
0 18 38 109 51 3 8 35 42 5 0 0 0 0 0 37 346 657 723 945 985 1159 1162 1230 1304 1583 2370 2585 3004 2876 3025 2763 2462 1919 2711 3284 3596 3842 3826 3428 3063 2378 2212 3153 3390 2565 2425 2383 2518

GFSSGP_con_sbcape_072.txt.gz
CAPE
23 0 1 174 797 540 103 305 442 224 222 201 205 377 397 574 532 908 553 590 643 663 950 1323 2021 1807 1840 1940 1948 1825 1894 2232 2167 2146 1921 1865 2159 2018 1407 1934 1802 1389 1260 1794 1656 1907 1789 1995 2479
19 26 309 480 304 2 175 146 272 226 237 227 262 343 437 547 419 481 512 652 488 698 869 1032 1943 2237 2153 2346 2137 2138 1910 1896 1889 1896 2051 2040 2107 1451 1929 1957 1659 2050 1673 1504 1806 1897 1734 2225 2310
212 222 677 744 699 56 237 256 277 207 204 276 490 617 327 332 291 548 445 418 390 603 799 1328 2468 2660 2189 2334 2419 2333 2201 2157 2178 2103 1970 1846 1961 1880 1890 1815 1633 1765 1880 1803 1776 1909 1631 1803 2055
304 815 718 876 182 160 395 212 182 225 177 181 205 363 285 387 300 445 416 292 206 709 947 1869 2594 2469 2394 2477 2477 2171 2091 2053 1994 1940 1846 2018 1646 1686 1721 1803 1791 1851 1921 1779 1591 1730 1731 1830 1726
264 603 760 692 8 56 320 272 242 348 119 151 292 388 202 329 404 414 253 226 59 625 857 1544 2429 2528 2483 2337 2276 2048 2051 2051 1877 1959 1918 2081 1934 1839 1683 1760 1824 1895 1715 1625 1554 1438 1529 1524 1664
486 652 830 178 32 156 314 341 406 341 386 325 249 306 173 324 320 265 207 108 230 267 548 1154 2181 2347 2240 2063 2135 2110 2034 1981 1897 2147 1980 2273 1894 1760 1859 1792 1798 1743 1688 1572 1287 1840 1967 1640 1684
135 711 528 213 241 354 448 502 577 536 453 434 291 435 275 281 389 403 302 33 12 386 436 1104 1675 2029 2207 2419 1868 1939 1947 1973 2015 2197 2138 2095 1996 2100 1857 1848 1678 1482 1502 1449 1327 1363 1494 1625 1584
43 124 457 170 304 170 171 704 416 595 441 650 615 298 268 240 382 190 114 35 44 329 505 1557 1968 1467 1892 1705 2151 2002 1934 1877 1954 1971 1627 1678 2061 1754 1415 2153 1901 1428 1424 1341 1287 1418 1504 2166 2190
14 0 458 224 182 210 7 386 803 710 558 539 731 393 335 221 179 143 59 56 392 197 468 583 702 1199 1608 1681 1895 1989 1872 1889 1943 2081 1907 2365 1724 1629 1297 1920 1608 1400 1271 1252 1345 1563 1947 2128 1838
8 35 428 190 332 0 0 28 842 701 461 437 729 473 345 230 279 181 51 76 208 326 270 260 556 745 1057 1037 1958 2085 1802 1589 1841 2054 1825 2310 971 2224 980 1177 1512 1416 1331 1222 1556 1597 1490 1198 799
2 0 65 108 227 12 227 117 788 468 421 354 783 449 369 269 259 158 49 44 320 206 215 418 1570 1813 609 1270 2119 1922 1597 1770 1969 2122 654 2216 2223 1112 1438 1346 1329 1273 1627 1185 1285 1536 1231 756 752
6 5 2 33 141 427 274 670 293 295 169 246 648 431 316 227 94 30 35 23 228 189 181 1037 712 1862 977 1265 1565 1106 984 1804 1415 1911 2847 2911 1495 807 696 1181 1556 1215 1866 803 274 464 939 651 1084
0 0 4 42 13 413 389 255 314 133 0 0 557 377 321 301 116 132 50 15 91 223 504 975 1328 1754 1877 2623 769 1031 1052 1260 1546 1730 2237 505 1642 919 722 1852 706 602 909 1013 547 1328 823 975 528
0 0 0 12 1 418 193 568 334 334 82 633 538 326 338 287 235 497 58 52 38 135 622 798 663 1883 1960 2172 2755 690 1750 1624 1104 2038 2247 1350 2101 1276 1960 2155 649 744 125 465 1437 1334 335 1176 1207
0 0 0 0 0 501 241 391 568 577 538 445 607 384 298 409 337 312 228 171 66 198 615 731 698 973 1947 2397 2188 2311 693 259 1468 1725 2455 1255 1761 2690 2008 2507 601 637 763 1349 2201 1961 1171 639 709
0 0 0 0 0 55 400 320 614 600 461 578 628 566 613 531 298 402 434 220 86 74 638 602 276 554 1549 2696 2021 2288 1928 1249 1801 1886 2195 2278 2543 2829 2039 2829 2318 2543 1717 771 758 886 1573 570 956
0 0 0 0 0 1 292 342 733 196 150 704 616 665 632 556 503 564 417 277 133 251 583 605 892 590 1329 2301 1850 2061 2643 1339 1911 1796 2123 2759 2576 1955 984 2291 2764 2768 2175 2199 816 330 505 1699 1157
0 0 0 0 0 0 52 221 158 0 3 15 716 551 726 527 397 543 411 421 118 187 555 923 913 1216 2188 1970 2400 1833 2088 2229 382 1945 2203 2930 2796 2289 1919 1978 2645 2950 1678 1606 1526 1453 1485 1802 51
0 0 0 0 0 0 19 187 46 0 0 0 523 442 506 598 437 539 469 521 183 82 466 1112 1185 1672 1382 1677 1471 1517 1673 1808 2073 1315 2776 3023 2002 2774 2911 3297 2728 2503 2048 1917 2661 2577 1800 1304 720
0 0 0 0 0 0 2 67 96 20 15 0 11 590 458 575 607 657 552 567 297 206 412 763 1312 1808 1268 1830 1734 1770 2229 1321 1433 1699 2731 2722 2431 3045 2216 2450 2582 3024 2542 2054 2570 403 563 2021 326
0 0 0 0 0 0 0 44 178 18 79 149 9 800 290 751 552 661 488 519 446 337 492 618 1510 1857 1327 1544 1404 2251 2346 2354 1821 2665 2464 2297 2913 2842 1805 2941 2774 2886 2861 2102 2308 1631 2087 1273 370
0 0 0 0 0 0 0 0 266 657 603 77 263 643 407 515 677 616 398 590 468 454 578 800 1367 2089 1342 1856 1204 1839 1377 1740 1703 2099 1818 2325 3121 3016 2865 3220 3376 3029 2142 2365 2310 2582 1980 2214 1708
0 0 0 0 0 0 0 0 0 123 141 38 5 439 491 278 723 624 533 490 514 536 588 990 1159 1968 1220 1266 1909 1617 1626 1491 2013 1498 2903 2578 3528 3494 2283 3052 3347 3099 2860 2912 2881 2758 2693 3005 2285
0 0 0 0 0 0 0 0 0 26 525 54 1 65 527 469 408 809 759 663 654 570 468 1077 1265 1655 1608 1273 1556 1920 1346 2412 1942 1828 2215 2513 2315 2793 3305 2878 3395 3260 3015 2897 3296 3186 3033 3634 3448
0 0 0 0 0 0 0 0 0 0 335 296 3 90 530 843 728 676 831 834 775 674 565 697 1382 1432 1596 1480 1062 2172 1417 1760 3130 2840 1908 1553 1825 1643 2728 3549 3204 2885 3307 2854 3373 3612 3497 3347 3361
0 0 0 0 0 0 0 0 0 0 0 410 22 142 18 388 899 745 925 1006 1014 963 799 643 1465 1530 1529 1807 940 1403 2351 1391 1845 3105 1350 1983 1031 1606 2467 2761 3292 3605 3103 3289 3494 3392 3179 3250 3092
0 6 0 0 0 0 0 0 0 0 0 0 185 11 7 21 1118 882 950 1033 1307 1166 1115 1003 1301 1698 1757 1617 1669 951 2015 2305 1339 2773 3246 1777 2491 2153 2517 2749 3362 3201 3066 3139 3364 3150 3084 3205 3685
0 0 3 7 2 6 0 0 0 0 0 0 0 61 41 62 163 1035 898 1069 1294 1299 1459 1398 1497 1721 1966 1517 1945 1386 1218 1669 2076 1417 3169 2461 2996 2644 2850 3069 2972 3163 3600 3501 3299 2947 2700 3325 2845
1 0 0 2 27 3 0 0 7 8 0 0 0 0 119 128 89 843 1000 1138 1234 1399 1441 1597 1722 1846 2094 2188 1830 1811 1364 1278 1152 1577 1416 2332 2530 4219 3479 3675 3241 3181 3025 3529 3649 3307 2914 3106 3256
6 14 0 116 27 31 4 7 16 44 0 0 0 0 18 72 261 21 56 1169 1322 1442 1453 1696 1696 2235 2314 2340 2175 1870 2229 1664 1348 813 1566 2700 2619 3070 4355 3451 3978 3159 3045 3176 3285 3097 2290 2912 3224

GFSSGP_con_sbcape_075.txt.gz
CAPE
35 11 0 105 583 181 2 0 7 76 118 83 139 400 338 438 450 347 80 250 232 298 767 1361 2212 1762 1664 1818 1693 1764 1975 2137 2115 2019 1840 2227 1988 1834 1894 1891 1316 1598 1857 1732 2055 1827 2138 2365 2413
0 0 153 327 145 1 0 92 298 167 157 143 311 408 255 245 177 173 231 287 258 575 849 1152 2156 2129 1673 1640 1773 1823 2073 2185 2053 1811 2220 2093 1571 1956 2018 1719 1958 1535 1487 1955 1802 1633 2188 2230 2366
1 103 279 144 59 8 98 91 200 205 341 345 347 143 288 213 263 219 256 331 379 522 692 1131 1954 2224 1708 1703 1750 2007 1882 1960 2045 1922 2000 1902 1723 1957 1862 1672 1889 1981 1639 1841 1903 1704 1860 2034 1827
148 415 208 88 14 3 122 139 116 198 207 221 107 103 127 180 167 114 158 259 295 594 755 1812 2305 1938 2131 2044 2229 2227 2133 2092 2048 1965 1974 1794 2067 1863 1758 1808 1956 1814 1638 1712 1701 1585 1670 1508 1441
338 363 222 2 0 0 0 31 181 127 167 288 210 154 153 58 59 46 69 278 421 615 1150 1711 2581 2452 2315 2173 2027 1977 2070 2080 2032 1940 2054 1444 1785 1883 1872 1970 1847 1685 1556 1485 1418 1453 1554 1574 1613
361 395 264 4 7 60 112 42 53 104 237 221 163 142 173 123 30 7 23 340 461 523 1188 1423 2023 2137 2227 2009 1885 2074 1954 1859 1923 2010 1918 2078 1655 1718 1743 1706 1784 1673 1510 1464 1570 1612 1539 1580 1710
146 101 201 158 57 64 473 332 83 173 223 88 67 115 100 56 10 28 62 145 121 668 801 1358 1558 1762 2084 2013 1990 1971 2002 1901 1931 2064 2253 1882 1784 1904 1816 1790 1596 1597 1455 1258 1367 1455 1561 1526 1617
222 16 2 134 153 231 106 121 233 501 214 183 87 117 25 64 20 10 3 33 133 424 747 1109 1401 1326 1423 1405 1809 1910 2012 2032 2052 2025 1810 1797 1851 1632 1535 2016 1860 1408 1345 1276 1204 1287 1471 1730 1871
104 22 1 168 252 3 0 8 114 539 140 226 210 101 20 2 19 2 5 22 135 228 795 1045 854 1077 1053 1452 1614 1819 1937 2007 1995 1672 1641 1756 1217 1002 1074 1912 1891 1374 1309 1297 1427 1515 1580 1661 1602
7 5 41 184 96 66 0 0 1 242 389 228 133 159 49 38 47 0 21 28 53 216 654 936 352 716 975 1355 1408 1330 1468 1621 1382 1241 1212 1166 860 797 878 1562 1728 1418 1282 1320 1551 1538 890 1022 462
0 0 42 77 156 184 206 0 0 210 273 310 143 91 8 43 5 9 5 1 37 132 342 143 200 594 695 839 1241 1302 1203 1044 1050 1006 904 861 806 550 577 829 1078 936 1374 955 706 768 487 384 295
0 0 0 15 229 243 122 480 589 152 275 245 174 67 16 9 6 6 4 0 20 39 4 124 109 156 374 859 1226 1195 932 1334 1068 658 497 863 137 47 338 713 459 395 112 249 291 617 562 327 763
0 0 0 12 179 210 592 661 4 134 191 196 209 46 7 6 4 2 0 0 0 77 322 283 676 256 284 794 1121 462 793 1247 595 899 299 384 685 578 377 724 446 284 18 30 80 46 475 647 575
0 0 0 1 2 222 417 415 2 45 128 275 225 65 13 12 3 4 0 0 10 327 164 151 152 173 855 798 776 684 471 557 869 811 263 141 770 659 555 318 454 407 163 154 324 306 344 302 742
0 0 0 0 0 8 288 320 441 488 467 410 251 131 19 7 13 5 0 0 0 221 97 312 583 286 624 1243 829 268 8 229 1136 1192 451 242 506 864 1338 616 288 451 0 142 319 223 306 361 704
0 0 0 0 0 0 152 302 621 179 543 332 256 246 136 8 12 9 0 0 0 118 18 16 437 705 372 1106 830 293 22 0 837 1196 1121 814 1112 846 760 941 495 451 267 452 467 432 443 212 483
0 0 0 0 0 0 38 376 260 4 142 308 326 206 222 77 36 6 0 0 0 39 29 1 5 639 199 924 449 714 115 443 1050 955 1142 1471 1105 8 696 769 774 1019 803 161 372 106 138 682 421
0 0 0 0 0 0 0 530 277 133 164 4 273 64 205 211 115 2 0 0 0 79 3 21 0 461 478 245 394 620 744 722 1164 1024 1303 1281 1376 1142 738 628 1198 1386 1046 198 289 576 165 672 268
0 0 0 0 0 0 0 361 590 404 219 289 51 0 267 223 181 129 5 0 0 60 4 44 10 477 888 707 416 583 598 118 903 1094 1525 1431 1364 1092 619 848 1533 1087 633 715 812 1211 770 750 247
0 0 0 0 0 0 0 143 222 18 18 14 47 86 237 273 221 124 17 0 0 0 74 10 158 525 764 691 605 346 558 482 638 978 1485 1785 1045 1151 983 948 1305 1161 1087 1202 877 68 98 798 221
0 0 0 0 0 0 0 134 54 29 28 65 281 282 37 273 243 179 49 0 0 0 39 171 472 387 663 232 483 780 1062 257 440 855 1403 1424 1558 1482 1081 967 1527 1486 1337 740 918 291 554 286 68
0 0 0 0 0 0 0 0 74 52 67 122 184 126 60 1 185 238 69 0 0 0 0 371 559 399 276 343 100 473 710 460 738 823 1310 1203 1464 1574 1062 1530 1443 1570 1443 1089 785 1229 1370 922 529
0 0 0 0 0 0 0 0 0 96 115 68 84 0 0 0 26 177 111 53 0 0 0 111 721 345 130 441 28 260 311 433 468 838 1280 1089 1602 1721 1518 1959 1430 1284 1450 1179 1320 1348 1436 1638 1130
0 0 0 0 0 0 0 0 0 95 136 133 105 0 13 0 6 246 169 95 5 0 0 0 738 244 172 106 557 199 148 365 792 641 1154 1178 1644 1970 1839 1784 1559 1373 1495 1761 1262 1622 1498 1601 1849
0 0 0 0 0 0 0 0 0 0 356 365 162 0 0 0 38 332 178 159 109 27 14 0 340 649 166 108 188 800 57 185 949 649 1558 1149 1326 1208 1828 1768 1684 1584 1519 1680 1784 1636 2021 1877 1583
0 0 0 0 0 0 0 0 0 0 184 155 73 0 0 181 128 339 276 175 189 129 137 90 73 557 407 34 32 437 340 108 472 1369 754 932 982 807 890 1815 1350 1323 1362 1463 1720 1443 1933 1543 1779
0 0 0 0 0 0 0 0 0 0 0 238 47 2 6 232 402 355 312 215 220 249 179 335 174 229 571 351 0 118 1015 17 330 721 1197 846 326 734 844 1804 1828 1607 1728 1776 1652 1580 1945 1734 1928
0 0 0 0 0 0 0 0 0 0 0 35 201 54 343 362 165 272 119 329 222 338 265 193 463 301 604 553 206 63 468 715 380 527 1242 1312 610 796 1167 1407 2004 1906 1709 1387 1917 1309 1858 1334 1389
0 0 0 0 0 0 0 0 0 0 0 0 10 79 220 206 92 62 80 196 399 415 412 248 695 545 617 484 646 58 77 783 904 459 529 1336 1035 1987 1940 1737 2013 2039 1888 1852 1900 1301 1685 1417 1326
0 0 0 0 0 0 0 0 0 0 0 0 0 332 340 131 56 33 70 253 233 475 595 444 594 751 733 553 709 630 30 333 707 670 218 664 1126 1237 1963 1985 1929 1821 1796 2026 1906 1886 1863 1718 1683